Change the Weather History Date:

Tuesday, May 28, 2013

  Actual Average Record
Temperature  
Mean Temperature 74 °F -  
Max Temperature 86 °F 76 °F 95 °F (2012)
Min Temperature 63 °F 61 °F 52 °F (2011)
Cooling Degree Days 10    
Growing Degree Days 24 (Base 50)    
Moisture  
Dew Point 60 °F    
Average Humidity 59    
Maximum Humidity 87    
Minimum Humidity 36    
Precipitation  
Precipitation 0.00 in - - ()
Sea Level Pressure  
Sea Level Pressure 30.09 in    
Wind  
Wind Speed 5 mph (SSW)    
Max Wind Speed 14 mph    
Max Gust Speed 23 mph    
Visibility 10 miles    
Events      
Averages and records for this station are not official NWS values.
T = Trace of Precipitation, MM = Missing Value Source: NWS Daily Summary

Daily Weather History Graph

Daily Weather History Graph

Search for Another Location

Airport or City:

Trip Planner

Search our weather history database for the weather conditions in past years. The results will help you decide how hot, cold, wet, or windy it might be!

Date:

Astronomy

May. 28, 2013 Rise Set
Actual Time 5:32 AM CDT 7:55 PM CDT
Civil Twilight 5:02 AM CDT 8:24 PM CDT
Nautical Twilight 4:26 AM CDT 9:00 PM CDT
Astronomical Twilight 3:46 AM CDT 9:40 PM CDT
Moon 11:22 PM CDT (5/28) 9:16 AM CDT (5/28)
Length of Visible Light 15h 21m
Length of Day
14h 22m
Waning Gibbous, 82% of the Moon is Illuminated
May 28
Waning Gibbous
May 31
Last Quarter
Jun 8
New
Jun 16
First Quarter
Jun 23
Full

Hourly Weather History & Observations

Time (CDT) Temp. Heat Index Dew Point Humidity Pressure Visibility Wind Dir Wind Speed Gust Speed Precip Events Conditions
12:56 AM 68.9 °F - 59.9 °F 73% 30.07 in 10.0 mi South 4.6 mph - N/A   Clear
1:56 AM 64.9 °F - 59.0 °F 81% 30.07 in 10.0 mi Calm Calm - N/A   Clear
2:56 AM 68.0 °F - 59.9 °F 75% 30.07 in 10.0 mi Calm Calm - N/A   Clear
3:56 AM 63.9 °F - 59.9 °F 87% 30.08 in 10.0 mi Calm Calm - N/A   Clear
4:56 AM 63.9 °F - 59.0 °F 84% 30.09 in 10.0 mi Calm Calm - N/A   Clear
5:56 AM 63.9 °F - 59.0 °F 84% 30.10 in 10.0 mi Calm Calm - N/A   Clear
6:56 AM 66.9 °F - 61.0 °F 81% 30.12 in 10.0 mi Calm Calm - N/A   Clear
7:56 AM 72.9 °F - 61.9 °F 68% 30.14 in 10.0 mi SW 5.8 mph - N/A   Clear
8:56 AM 75.9 °F - 61.9 °F 62% 30.16 in 10.0 mi SSW 4.6 mph - N/A   Clear
9:56 AM 79.9 °F - 57.9 °F 47% 30.14 in 10.0 mi SSW 9.2 mph - N/A   Clear
10:56 AM 81.9 °F 81.4 °F 55.9 °F 41% 30.14 in 10.0 mi SW 13.8 mph 23.0 mph N/A   Clear
11:56 AM 83.8 °F 83.6 °F 59.0 °F 43% 30.13 in 10.0 mi SW 11.5 mph - N/A   Clear
12:56 PM 84.9 °F 84.8 °F 59.9 °F 43% 30.12 in 10.0 mi WSW 12.7 mph 18.4 mph N/A   Partly Cloudy
1:56 PM 86.0 °F 85.4 °F 59.0 °F 40% 30.10 in 10.0 mi SSW 9.2 mph 17.3 mph N/A   Partly Cloudy
2:56 PM 86.9 °F 86.3 °F 59.0 °F 39% 30.09 in 10.0 mi SSE 11.5 mph 18.4 mph N/A   Clear
3:56 PM 86.9 °F 85.9 °F 57.9 °F 37% 30.07 in 10.0 mi South 9.2 mph 18.4 mph N/A   Clear
4:56 PM 86.0 °F 84.7 °F 55.9 °F 36% 30.06 in 10.0 mi South 9.2 mph 20.7 mph N/A   Clear
5:56 PM 86.0 °F 84.9 °F 56.8 °F 37% 30.06 in 10.0 mi SW 12.7 mph 18.4 mph N/A   Clear
6:56 PM 83.8 °F 83.6 °F 59.0 °F 43% 30.06 in 10.0 mi SSW 9.2 mph 18.4 mph N/A   Clear
7:56 PM 79.9 °F - 61.0 °F 52% 30.06 in 10.0 mi South 4.6 mph - N/A   Clear
8:56 PM 77.9 °F - 61.9 °F 58% 30.07 in 10.0 mi South 5.8 mph - N/A   Clear
9:56 PM 74.8 °F - 61.9 °F 64% 30.07 in 10.0 mi Calm Calm - N/A   Clear
10:56 PM 72.9 °F - 61.9 °F 68% 30.07 in 10.0 mi Calm Calm - N/A   Clear
11:56 PM 73.9 °F - 61.9 °F 66% 30.07 in 10.0 mi South 5.8 mph - N/A   Clear